{"data":{"norad_id":60434,"intl_designator":"2024-144K","name":"STARLINK-32233","alt_names":[],"object_type":"PAYLOAD","status":"ACTIVE","operator":null,"country":"US","launch_date":"2024-08-12","launch_site_code":"AFETR","launch_vehicle":null,"mission":null,"orbit_class":"UNKNOWN","rcs_meters":null,"size_class":null,"mass_kg":null,"dimensions":null,"purposes":["comms"],"wikipedia_slug":null,"has_3d_model":false,"image_url":null,"decayed_at":null,"tle_current":{"epoch":"2026-05-25T04:44:07.539936Z","epoch_age_seconds":54111,"freshness":"FRESH","line1":"1 60434U 24144K   26145.19730949  .00001175  00000+0  45914-4 0  9992","line2":"2 60434  53.1606 220.9937 0001106  95.0026 265.1103 15.34388186101032","mean_motion":15.34388186,"eccentricity":0.0001106,"inclination_deg":53.1606,"raan_deg":220.9937,"arg_perigee_deg":95.0026,"mean_anomaly_deg":265.1103,"bstar":4.5914e-5,"rev_number":10103,"period_min":93.848480660812,"perigee_km":461.98175331592,"apogee_km":463.49495494426,"semimajor_km":6840.8753541301,"source":"CELESTRAK","updated_at":"2026-05-25T13:38:19.274421Z"}}}